Вернуться в каталог

ONEWEB-0360

АктивенСвязьPO
NORAD 49286·PAYLOAD·🇬🇧 United Kingdom

Запущен Oct 14, 2021 с Vostochny Cosmodrome

Loading…

Ближайшие Пролёты (ближайшие 24 часа)

TLE

СвежийSource: CelesTrak SupGP

Эпоха: Sep 14, 2026, 10:22 UTC

1 49286C 21090H   26257.43243472  .00002059  00000+0  50698-2 0  2574
2 49286  87.9135 256.6382 0001913  90.1180  21.9745 13.20769145    16

Отслеживайте ONEWEB-0360 в реальном времени с AllMySat

Download on the App Store